Weather History for CYCG - October, 2013

Change the Weather History Date:

Friday, October 11, 2013

  Actual Average Record
Temperature  
Mean Temperature 52 °F -  
Max Temperature 68 °F 47 °F 68 °F (2013)
Min Temperature 37 °F 35 °F 26 °F (2008)
Degree Days  
Heating Degree Days 12    
Growing Degree Days 2 (Base 50)    
Moisture  
Dew Point 36 °F    
Average Humidity 75    
Maximum Humidity 100    
Minimum Humidity 41    
Precipitation  
Precipitation 0.00 in 0.09 in - ()
Sea Level Pressure  
Sea Level Pressure 30.15 in    
Wind  
Wind Speed 2 mph ()    
Max Wind Speed 12 mph    
Max Gust Speed -    
Visibility 9.5 miles    
Events Fog    
Averages and records for this station are not official NWS values.
T = Trace of Precipitation, MM = Missing Value Source: Averaged Metar Reports

Daily Weather History Graph

Daily Weather History Graph

Search for Another Location

Airport or City:

Trip Planner

Search our weather history database for the weather conditions in past years. The results will help you decide how hot, cold, wet, or windy it might be!

Date:

Astronomy

Oct. 11, 2013 Rise Set
Actual Time 7:05 AM PDT 6:07 PM PDT
Civil Twilight 6:33 AM PDT 6:39 PM PDT
Nautical Twilight 5:57 AM PDT 7:16 PM PDT
Astronomical Twilight 5:19 AM PDT 7:53 PM PDT
Moon 2:08 PM PDT (10/11) 11:42 PM PDT (10/11)
Length of Visible Light 12h 05m
Length of Day
11h 01m
Waxing Crescent, 48% of the Moon is Illuminated
Oct 11
Waxing Crescent
Oct 11
First Quarter
Oct 18
Full
Oct 26
Last Quarter
Nov 3
New

Hourly Weather History & Observations

Time (PDT) Temp. Windchill Dew Point Humidity Pressure Visibility Wind Dir Wind Speed Gust Speed Precip Events Conditions
5:00 AM 47 °F - 44 °F 85% 30.15 in - North 2.3 mph - -  
6:00 AM 30.2 °F - 30.2 °F 100% 30.17 in 0.2 mi SE 2.3 mph - N/A Fog Light Freezing Fog
7:00 AM 32.0 °F - 32.0 °F 100% 30.19 in 0.2 mi SE 2.3 mph - N/A Fog Light Freezing Fog
8:00 AM 30.2 °F - 30.2 °F 100% 30.19 in 0.2 mi SSE 2.3 mph - N/A Fog Light Freezing Fog
9:00 AM 32.0 °F - 32.0 °F 100% 30.20 in 0.5 mi SSW 2.3 mph - N/A Fog Light Freezing Fog
10:00 AM 32.0 °F - 32.0 °F 100% 30.21 in 0.2 mi Variable 2.3 mph - N/A Fog Light Freezing Fog
10:14 AM 32.0 °F - 32.0 °F 100% 30.21 in 1.0 mi Calm Calm - N/A   Clear
10:47 AM 35.6 °F - 35.6 °F 100% 30.21 in 3.0 mi Calm Calm - N/A   Scattered Clouds
11:00 AM 65 °F - 52 °F 54% 30.08 in - WNW 6.9 mph - -  
11:00 AM 37.4 °F - 35.6 °F 93% 30.21 in 15.0 mi South 2.3 mph - N/A   Partly Cloudy
12:00 PM 42.8 °F - 35.6 °F 76% 30.18 in 15.0 mi Calm Calm - N/A   Scattered Clouds
1:00 PM 48.2 °F - 35.6 °F 62% 30.14 in 15.0 mi WSW 3.5 mph - N/A   Mostly Cloudy
2:00 PM 51.8 °F - 30.2 °F 44% 30.12 in 15.0 mi Variable 2.3 mph - N/A   Scattered Clouds
3:00 PM 53.6 °F - 30.2 °F 41% 30.10 in 15.0 mi North 3.5 mph - N/A   Scattered Clouds
4:00 PM 53.6 °F - 32.0 °F 44% 30.11 in 15.0 mi West 4.6 mph - N/A   Mostly Cloudy
5:00 PM 62 °F - 50 °F 56% 30.11 in - NE 8.1 mph - -  
5:00 PM 51.8 °F - 32.0 °F 47% 30.10 in 15.0 mi North 3.5 mph - N/A   Mostly Cloudy
6:00 PM 48.2 °F - 30.2 °F 50% 30.12 in 15.0 mi NNE 3.5 mph - N/A   Mostly Cloudy
7:00 PM 42.8 °F - 33.8 °F 70% 30.12 in 15.0 mi South 2.3 mph - N/A   Mostly Cloudy
8:00 PM 42.8 °F 41.1 °F 35.6 °F 76% 30.13 in 15.0 mi NNW 3.5 mph - N/A   Mostly Cloudy
9:00 PM 41.0 °F - 33.8 °F 76% 30.13 in 15.0 mi Calm Calm - N/A   Mostly Cloudy
11:00 PM 54 °F - 51 °F 86% 30.17 in - ENE 11.5 mph - -